Tracking 35331 objects as of 16-Sep-2026
HD Live streaming from Space Station
objects crossing your sky now

OBJECT C

Track OBJECT C now!
10-day predictions


NORAD ID: 100358
Int'l Code: 2026-187C
Launch date: August 16, 2026
Source: People's Republic of China (PRC)
Launch site: Wenchang Satellite Launch Center (WSC)

Note: This is a ROCKET BODY
Your satellite tracking list
Your tracking list is empty




NASA's NSSDC Master Catalog

Two Line Element Set (TLE):
1 A0358U 26187C   26258.38631507 -.00000122  00000-0  19055-4 0  9996
2 A0358  49.9972 217.0491 0000495 303.7730  56.3113 13.70617142  4198
Source of the keplerian elements: AFSPC